EA1BFZ-13 Weather Reports


time (UTC)temp
F
wind
direction
speed
knots
gust
knots
rain 1hr
in
rain 24hr
in
rain mn
in
humidity
%
barometer
mb
20260506204113 46 0 0.0 1.7 0.00 0.00 0.00 1013.0
20260506203113 46 0 1.7 3.5 0.00 0.00 0.00 1013.0
20260506202113 47 0 2.6 3.5 0.00 0.00 0.00 1013.0
20260506201113 47 0 2.6 3.5 0.00 0.00 0.00 1013.0
20260506200113 47 0 3.5 3.5 0.00 0.00 0.00 1012.0
20260506195113 48 0 2.6 1.7 0.00 0.00 0.00 1012.0
20260506194113 48 0 4.3 3.5 0.00 0.00 0.00 1012.0
20260506193113 49 0 2.6 2.6 0.00 0.00 0.00 1012.0
20260506192113 49 0 0.9 3.5 0.00 0.00 0.00 1012.0
20260506191113 50 0 1.7 1.7 0.00 0.00 0.00 1012.0
20260506190113 50 0 4.3 3.5 0.00 0.00 0.00 1012.0
20260506184113 52 0 2.6 7.0 0.00 0.00 0.00 1011.0
20260506183113 52 0 4.3 6.1 0.00 0.00 0.00 1011.0
20260506181113 53 0 5.2 7.0 0.00 0.00 0.00 1011.0
20260506180113 53 0 1.7 4.3 0.00 0.00 0.00 1011.0
20260506175113 53 0 1.7 5.2 0.00 0.00 0.00 1011.0
20260506174113 54 0 4.3 3.5 0.00 0.00 0.00 1011.0
20260506173113 55 0 5.2 7.0 0.00 0.00 0.00 1011.0
20260506172113 56 0 4.3 7.8 0.00 0.00 0.00 1011.0
20260506171113 57 0 5.2 4.3 0.00 0.00 0.00 1011.0
20260506170113 57 0 6.1 6.1 0.00 0.00 0.00 1011.0
20260506165113 58 0 3.5 5.2 0.00 0.00 0.00 1011.0
20260506164113 58 0 4.3 1.7 0.00 0.00 0.00 1011.0
20260506163113 58 0 4.3 4.3 0.00 0.00 0.00 1011.0
20260506162113 59 0 3.5 3.5 0.00 0.00 0.00 1011.0
20260506161113 60 0 3.5 7.0 0.00 0.00 0.00 1011.0
20260506160113 62 0 3.5 5.2 0.00 0.00 0.00 1011.0
20260506155113 65 0 6.1 4.3 0.00 0.00 0.00 1010.0
20260506154113 70 0 2.6 1.7 0.00 0.00 0.00 1010.0
20260506153113 65 0 0.9 0.9 0.00 0.00 0.00 1010.0
20260506152113 65 0 0.0 1.7 0.00 0.00 0.00 1011.0
20260506151113 67 0 0.0 1.7 0.00 0.00 0.00 1010.0
20260506150113 66 0 0.0 1.7 0.00 0.00 0.00 1011.0
20260506145113 70 0 2.6 3.5 0.00 0.00 0.00 1011.0
20260506144113 74 0 0.0 0.0 0.00 0.00 0.00 1011.0
20260506142731 75 0 0.0 0.0 0.00 0.00 0.00 1010.0
20260506142333 75 0 0.0 0.0 0.00 0.00 0.00 1010.0
20260506141333 74 0 0.0 0.0 0.00 0.00 0.00 1010.0
20260506140333 74 0 0.0 0.0 0.00 0.00 0.00 1010.0
20260506135333 74 0 0.0 0.0 0.00 0.00 0.00 1010.0
20260506134333 74 0 0.0 0.0 0.00 0.00 0.00 1010.0
20260506133333 74 0 0.0 0.0 0.00 0.00 0.00 1011.0
20260506132333 74 0 0.0 0.0 0.00 0.00 0.00 1011.0
20260506131333 74 0 0.0 4.3 0.00 0.00 0.00 1011.0
20260506130333 74 0 0.0 0.0 0.00 0.00 0.00 1011.0
20260506125333 74 0 0.0 0.0 0.00 0.00 0.00 1011.0
20260506124333 74 0 0.0 0.0 0.00 0.00 0.00 1011.0
20260506123333 74 0 0.0 0.0 0.00 0.00 0.00 1011.0
20260506122333 74 0 0.0 0.0 0.00 0.00 0.00 1011.0
20260506121333 74 0 0.0 0.0 0.00 0.00 0.00 1011.0
20260506120333 74 0 0.0 0.0 0.00 0.00 0.00 1011.0
20260506115333 74 0 0.0 0.0 0.00 0.00 0.00 1011.0
20260506114333 73 0 0.0 0.0 0.00 0.00 0.00 1011.0
20260506113333 73 0 0.0 0.0 0.00 0.00 0.00 1011.0
20260506112333 72 0 0.0 7.8 0.00 0.00 0.00 1011.0
20260506111333 71 0 0.0 0.0 0.00 0.00 0.00 1012.0
20260506110333 70 0 0.0 0.0 0.00 0.00 0.00 1012.0
20260506105333 69 0 0.0 0.0 0.00 0.00 0.00 1012.0
20260506104333 68 0 0.0 0.0 0.00 0.00 0.00 1012.0
20260506103333 67 0 0.0 0.0 0.00 0.00 0.00 1012.0
20260506102333 66 0 0.0 0.0 0.00 0.00 0.00 1012.0
20260505223055 72 0 0.0 0.0 0.00 0.00 0.00 1012.0
20260505222055 72 0 0.0 0.0 0.00 0.00 0.00 1012.0
20260505221055 72 0 0.0 0.0 0.00 0.00 0.00 1012.0
20260505215055 71 0 0.0 0.0 0.00 0.00 0.00 1012.0
20260505214515 70 0 0.0 0.0 0.00 0.00 0.00 1012.0